Time,TemperatureF,DewpointF,PressureIn,WindDirection,WindDirectionDegrees,WindSpeedMPH,WindSpeedGustMPH,Humidity,HourlyPrecipIn,Conditions,Clouds,dailyrainin,SoftwareType,DateUTC
2013-01-14 00:00:00,26.8,0.8,29.91,WNW,292,7.1,7.1,32,0.00,RA,,0.00,WeatherDisplay:10.37,2013-01-14 05:00:00,
2013-01-14 00:03:00,26.8,0.8,29.91,WNW,292,6.9,6.9,32,0.00,RA,,0.00,WeatherDisplay:10.37,2013-01-14 05:03:00,
2013-01-14 00:08:00,26.8,0.8,29.89,WNW,292,5.8,5.8,32,0.00,RA,,0.00,WeatherDisplay:10.37,2013-01-14 05:08:00,
2013-01-14 00:09:00,26.8,0.8,29.89,WNW,292,3.0,6.0,32,0.00,CLR,CLR,0.00,WeatherDisplay:10.37,2013-01-14 05:09:00,
2013-01-14 00:12:00,26.8,0.8,29.90,West,270,5.8,5.8,32,0.00,CLR,,0.00,WeatherDisplay:10.37,2013-01-14 05:12:00,
2013-01-14 00:17:00,26.8,0.8,29.91,NW,315,5.8,5.8,32,0.00,CLR,,0.00,WeatherDisplay:10.37,2013-01-14 05:17:00,
2013-01-14 00:22:00,26.8,0.8,29.92,NNW,337,5.8,5.8,32,0.00,CLR,,0.00,WeatherDisplay:10.37,2013-01-14 05:22:00,
2013-01-14 00:27:00,26.8,0.8,29.92,West,270,5.8,5.8,32,0.00,CLR,,0.00,WeatherDisplay:10.37,2013-01-14 05:27:00,
2013-01-14 00:32:00,27.0,1.0,29.93,WSW,247,5.8,5.8,32,0.00,CLR,,0.00,WeatherDisplay:10.37,2013-01-14 05:32:00,
2013-01-14 00:37:00,26.8,0.8,29.94,West,270,7.3,7.3,32,0.00,CLR,,0.00,WeatherDisplay:10.37,2013-01-14 05:37:00,
2013-01-14 00:42:00,26.8,0.8,29.95,WSW,247,7.3,7.3,32,0.00,CLR,,0.00,WeatherDisplay:10.37,2013-01-14 05:42:00,
2013-01-14 00:47:00,26.4,0.5,29.94,West,270,7.3,7.3,32,0.00,CLR,,0.00,WeatherDisplay:10.37,2013-01-14 05:47:00,
2013-01-14 00:52:00,26.4,1.2,29.93,WNW,292,7.3,7.3,33,0.00,CLR,,0.00,WeatherDisplay:10.37,2013-01-14 05:52:00,
2013-01-14 00:57:00,26.4,0.5,29.92,West,270,7.3,7.3,32,0.00,CLR,,0.00,WeatherDisplay:10.37,2013-01-14 05:57:00,
2013-01-14 01:02:00,26.2,1.0,29.92,West,270,7.3,7.3,33,0.00,CLR,,0.00,WeatherDisplay:10.37,2013-01-14 06:02:00,
2013-01-14 01:08:00,26.2,1.0,29.93,North,0,4.6,4.6,33,0.00,CLR,,0.00,WeatherDisplay:10.37,2013-01-14 06:08:00,
2013-01-14 01:13:00,24.6,-0.4,29.95,NNW,337,4.6,4.6,33,0.00,CLR,,0.00,WeatherDisplay:10.37,2013-01-14 06:13:00,
2013-01-14 01:18:00,24.6,-0.4,29.96,West,270,5.1,5.1,33,0.00,CLR,,0.00,WeatherDisplay:10.37,2013-01-14 06:18:00,
2013-01-14 01:24:00,24.8,-0.3,29.97,WNW,292,5.1,5.1,33,0.00,CLR,,0.00,WeatherDisplay:10.37,2013-01-14 06:24:00,
2013-01-14 01:29:00,25.0,-0.1,29.98,WNW,286,3.0,5.0,33,0.00,CLR,CLR,0.00,WeatherDisplay:10.37,2013-01-14 06:29:00,
2013-01-14 01:34:00,25.0,-0.1,29.98,WNW,284,2.0,5.0,33,0.00,CLR,CLR,0.00,WeatherDisplay:10.37,2013-01-14 06:34:00,
2013-01-14 01:39:00,25.0,-0.1,29.98,WNW,285,3.0,5.0,33,0.00,CLR,CLR,0.00,WeatherDisplay:10.37,2013-01-14 06:39:00,
2013-01-14 01:44:00,24.8,-0.3,29.97,WNW,292,2.0,5.0,33,0.00,CLR,CLR,0.00,WeatherDisplay:10.37,2013-01-14 06:44:00,
2013-01-14 01:49:00,24.9,-0.2,29.96,NW,324,3.0,6.0,33,0.00,CLR,CLR,0.00,WeatherDisplay:10.37,2013-01-14 06:49:00,
2013-01-14 01:54:00,25.2,0.0,29.95,NNW,329,5.0,6.0,33,0.00,CLR,CLR,0.00,WeatherDisplay:10.37,2013-01-14 06:54:00,
2013-01-14 01:59:00,25.4,0.2,29.95,WNW,303,5.0,6.0,33,0.00,CLR,CLR,0.00,WeatherDisplay:10.37,2013-01-14 06:59:00,
2013-01-14 02:04:00,25.6,0.4,29.96,West,279,6.0,7.0,33,0.00,CLR,CLR,0.00,WeatherDisplay:10.37,2013-01-14 07:04:00,
2013-01-14 02:09:00,25.9,0.7,29.98,WSW,256,7.0,7.0,33,0.00,CLR,CLR,0.00,WeatherDisplay:10.37,2013-01-14 07:09:00,
2013-01-14 02:14:00,26.1,0.8,29.99,WSW,247,5.0,7.0,33,0.00,CLR,CLR,0.00,WeatherDisplay:10.37,2013-01-14 07:14:00,
2013-01-14 02:20:00,26.1,0.2,29.99,WSW,247,8.0,8.0,32,0.00,CLR,CLR,0.00,WeatherDisplay:10.37,2013-01-14 07:20:00,
2013-01-14 02:25:00,22.6,-2.2,30.01,West,270,8.1,8.1,33,0.00,CLR,,0.00,WeatherDisplay:10.37,2013-01-14 07:25:00,
2013-01-14 02:30:00,22.6,-2.8,30.01,West,270,8.1,8.1,32,0.00,CLR,,0.00,WeatherDisplay:10.37,2013-01-14 07:30:00,
2013-01-14 02:35:00,22.8,-2.7,30.01,WSW,247,8.1,8.1,32,0.00,CLR,,0.00,WeatherDisplay:10.37,2013-01-14 07:35:00,
2013-01-14 02:41:00,22.8,-2.7,30.01,NW,315,8.1,8.1,32,0.00,CLR,,0.00,WeatherDisplay:10.37,2013-01-14 07:41:00,
2013-01-14 02:46:00,22.8,-2.7,30.00,West,270,8.1,8.1,32,0.00,CLR,,0.00,WeatherDisplay:10.37,2013-01-14 07:46:00,
2013-01-14 02:51:00,22.8,-2.7,30.00,WNW,292,8.1,8.1,32,0.00,CLR,,0.00,WeatherDisplay:10.37,2013-01-14 07:51:00,
2013-01-14 02:56:00,22.6,-2.8,30.00,NW,315,8.1,8.1,32,0.00,CLR,,0.00,WeatherDisplay:10.37,2013-01-14 07:56:00,
2013-01-14 03:02:00,22.6,-3.5,30.01,West,270,8.1,8.1,31,0.00,CLR,,0.00,WeatherDisplay:10.37,2013-01-14 08:02:00,
2013-01-14 03:08:00,22.6,-2.8,30.03,WNW,292,7.3,7.3,32,0.00,CLR,,0.00,WeatherDisplay:10.37,2013-01-14 08:08:00,
2013-01-14 03:14:00,22.6,-2.8,30.03,WNW,292,7.3,7.3,32,0.00,CLR,,0.00,WeatherDisplay:10.37,2013-01-14 08:14:00,
2013-01-14 03:19:00,22.6,-2.8,30.04,NW,308,3.0,7.0,32,0.00,CLR,CLR,0.00,WeatherDisplay:10.37,2013-01-14 08:19:00,
2013-01-14 03:24:00,22.8,-3.4,30.05,NNW,337,6.0,7.0,31,0.00,CLR,CLR,0.00,WeatherDisplay:10.37,2013-01-14 08:24:00,
2013-01-14 03:29:00,23.2,-2.4,30.06,NNW,337,2.0,7.0,32,0.00,CLR,CLR,0.00,WeatherDisplay:10.37,2013-01-14 08:29:00,
2013-01-14 03:34:00,23.2,-2.4,30.06,NW,313,1.0,7.0,32,0.00,CLR,CLR,0.00,WeatherDisplay:10.37,2013-01-14 08:34:00,
2013-01-14 03:39:00,23.2,-3.0,30.05,WNW,285,3.0,7.0,31,0.00,CLR,CLR,0.00,WeatherDisplay:10.37,2013-01-14 08:39:00,
2013-01-14 03:44:00,23.2,-2.4,30.05,WNW,292,3.0,7.0,32,0.00,CLR,CLR,0.00,WeatherDisplay:10.37,2013-01-14 08:44:00,
2013-01-14 03:49:00,23.2,-2.4,30.04,WNW,292,5.0,7.0,32,0.00,CLR,CLR,0.00,WeatherDisplay:10.37,2013-01-14 08:49:00,
2013-01-14 03:54:00,23.4,-2.2,30.04,WNW,292,2.0,7.0,32,0.00,CLR,CLR,0.00,WeatherDisplay:10.37,2013-01-14 08:54:00,
2013-01-14 03:59:00,23.2,-2.3,30.05,WNW,292,2.0,7.0,32,0.00,CLR,CLR,0.00,WeatherDisplay:10.37,2013-01-14 08:59:00,
2013-01-14 04:04:00,23.4,-2.2,30.05,WNW,292,5.0,7.0,32,0.00,CLR,CLR,0.00,WeatherDisplay:10.37,2013-01-14 09:04:00,
2013-01-14 04:09:00,23.6,-2.0,30.07,NW,308,6.0,6.0,32,0.00,CLR,CLR,0.00,WeatherDisplay:10.37,2013-01-14 09:09:00,
2013-01-14 04:14:00,23.7,-1.9,30.07,NW,309,6.0,6.0,32,0.00,CLR,CLR,0.00,WeatherDisplay:10.37,2013-01-14 09:14:00,
2013-01-14 04:19:00,23.5,-2.1,30.08,WNW,299,5.0,6.0,32,0.00,CLR,CLR,0.00,WeatherDisplay:10.37,2013-01-14 09:19:00,
2013-01-14 04:24:00,23.7,-1.9,30.09,West,280,2.0,6.0,32,0.00,CLR,CLR,0.00,WeatherDisplay:10.37,2013-01-14 09:24:00,
2013-01-14 04:29:00,23.7,-1.9,30.10,WNW,285,2.0,6.0,32,0.00,CLR,CLR,0.00,WeatherDisplay:10.37,2013-01-14 09:29:00,
2013-01-14 04:34:00,23.7,-1.9,30.09,WNW,286,3.0,8.0,32,0.00,CLR,CLR,0.00,WeatherDisplay:10.37,2013-01-14 09:34:00,
2013-01-14 04:39:00,23.9,-2.4,30.08,West,269,3.0,8.0,31,0.00,CLR,CLR,0.00,WeatherDisplay:10.37,2013-01-14 09:39:00,
2013-01-14 04:44:00,23.9,-2.4,30.08,West,281,2.0,8.0,31,0.00,CLR,CLR,0.00,WeatherDisplay:10.37,2013-01-14 09:44:00,
2013-01-14 04:49:00,24.1,-2.2,30.07,WNW,294,2.0,8.0,31,0.00,CLR,CLR,0.00,WeatherDisplay:10.37,2013-01-14 09:49:00,
2013-01-14 04:54:00,23.6,-2.7,30.08,West,281,5.0,8.0,31,0.00,CLR,CLR,0.00,WeatherDisplay:10.37,2013-01-14 09:54:00,
2013-01-14 04:59:00,20.8,-5.1,30.09,WNW,287,3.0,8.0,31,0.00,CLR,CLR,0.00,WeatherDisplay:10.37,2013-01-14 09:59:00,
2013-01-14 05:04:00,21.0,-4.9,30.10,NW,304,5.0,8.0,31,0.00,CLR,CLR,0.00,WeatherDisplay:10.37,2013-01-14 10:04:00,
2013-01-14 05:09:00,21.2,-4.8,30.11,NW,308,6.0,6.0,31,0.00,CLR,CLR,0.00,WeatherDisplay:10.37,2013-01-14 10:09:00,
2013-01-14 05:14:00,21.2,-4.8,30.13,WNW,298,3.0,6.0,31,0.00,CLR,CLR,0.00,WeatherDisplay:10.37,2013-01-14 10:14:00,
2013-01-14 05:19:00,21.4,-4.6,30.13,West,278,3.0,6.0,31,0.00,CLR,CLR,0.00,WeatherDisplay:10.37,2013-01-14 10:19:00,
2013-01-14 05:24:00,21.6,-4.5,30.14,WNW,287,5.0,6.0,31,0.00,CLR,CLR,0.00,WeatherDisplay:10.37,2013-01-14 10:24:00,
2013-01-14 05:29:00,21.5,-4.5,30.14,NW,309,3.0,6.0,31,0.00,CLR,CLR,0.00,WeatherDisplay:10.37,2013-01-14 10:29:00,
2013-01-14 05:35:00,21.6,-4.5,30.13,West,270,5.8,5.8,31,0.00,CLR,,0.00,WeatherDisplay:10.37,2013-01-14 10:35:00,
2013-01-14 05:40:00,21.7,-4.3,30.12,WNW,292,5.8,5.8,31,0.00,CLR,,0.00,WeatherDisplay:10.37,2013-01-14 10:40:00,
2013-01-14 05:46:00,21.7,-4.3,30.11,West,270,5.8,5.8,31,0.00,CLR,,0.00,WeatherDisplay:10.37,2013-01-14 10:46:00,
2013-01-14 05:51:00,21.9,-4.1,30.10,West,270,5.8,5.8,31,0.00,CLR,,0.00,WeatherDisplay:10.37,2013-01-14 10:51:00,
2013-01-14 05:57:00,21.9,-4.8,30.11,WNW,292,5.8,5.8,30,0.00,CLR,,0.00,WeatherDisplay:10.37,2013-01-14 10:57:00,
2013-01-14 06:02:00,21.9,-4.1,30.12,NNW,337,5.8,5.8,31,0.00,CLR,,0.00,WeatherDisplay:10.37,2013-01-14 11:02:00,
2013-01-14 06:07:00,22.1,-4.7,30.13,NW,315,3.5,3.5,30,0.00,CLR,,0.00,WeatherDisplay:10.37,2013-01-14 11:07:00,
2013-01-14 06:12:00,21.7,-5.0,30.13,SW,225,4.5,4.5,30,0.00,CLR,,0.00,WeatherDisplay:10.37,2013-01-14 11:12:00,
2013-01-14 06:17:00,21.7,-5.0,30.15,West,270,4.6,4.6,30,0.00,CLR,,0.00,WeatherDisplay:10.37,2013-01-14 11:17:00,
2013-01-14 06:22:00,21.9,-4.8,30.15,NW,315,4.6,4.6,30,0.00,CLR,,0.00,WeatherDisplay:10.37,2013-01-14 11:22:00,
2013-01-14 06:27:00,22.1,-4.7,30.16,NW,315,4.6,4.6,30,0.00,CLR,,0.00,WeatherDisplay:10.37,2013-01-14 11:27:00,
2013-01-14 06:32:00,21.9,-4.8,30.17,WSW,247,4.6,4.6,30,0.00,CLR,,0.00,WeatherDisplay:10.37,2013-01-14 11:32:00,
2013-01-14 06:37:00,21.9,-4.8,30.17,WNW,292,4.6,4.6,30,0.00,CLR,,0.00,WeatherDisplay:10.37,2013-01-14 11:37:00,
2013-01-14 06:42:00,21.7,-5.0,30.17,WNW,292,4.6,4.6,30,0.00,CLR,,0.00,WeatherDisplay:10.37,2013-01-14 11:42:00,
2013-01-14 06:47:00,21.7,-5.0,30.16,WNW,292,4.6,4.6,30,0.00,CLR,,0.00,WeatherDisplay:10.37,2013-01-14 11:47:00,
2013-01-14 06:52:00,21.9,-4.8,30.16,WNW,292,4.6,4.6,30,0.00,CLR,,0.00,WeatherDisplay:10.37,2013-01-14 11:52:00,
2013-01-14 06:57:00,21.9,-4.8,30.17,WNW,292,4.9,4.9,30,0.00,CLR,,0.00,WeatherDisplay:10.37,2013-01-14 11:57:00,
2013-01-14 07:02:00,21.7,-5.0,30.18,WNW,292,4.6,4.6,30,0.00,CLR,,0.00,WeatherDisplay:10.37,2013-01-14 12:02:00,
2013-01-14 07:07:00,21.6,-5.2,30.18,NW,315,4.7,4.7,30,0.00,CLR,,0.00,WeatherDisplay:10.37,2013-01-14 12:07:00,
2013-01-14 07:12:00,21.4,-5.3,30.20,West,270,4.7,4.7,30,0.00,CLR,,0.00,WeatherDisplay:10.37,2013-01-14 12:12:00,
2013-01-14 07:17:00,21.7,-5.0,30.21,WSW,247,4.7,4.7,30,0.00,CLR,,0.00,WeatherDisplay:10.37,2013-01-14 12:17:00,
2013-01-14 07:22:00,21.9,-4.8,30.20,NW,315,5.5,5.5,30,0.00,CLR,,0.00,WeatherDisplay:10.37,2013-01-14 12:22:00,
2013-01-14 07:27:00,22.1,-4.7,30.20,WNW,292,5.8,5.8,30,0.00,CLR,,0.00,WeatherDisplay:10.37,2013-01-14 12:27:00,
2013-01-14 07:32:00,22.1,-4.7,30.19,WNW,292,5.8,5.8,30,0.00,CLR,,0.00,WeatherDisplay:10.37,2013-01-14 12:32:00,
2013-01-14 07:37:00,22.1,-4.7,30.18,NNW,337,5.8,5.8,30,0.00,CLR,,0.00,WeatherDisplay:10.37,2013-01-14 12:37:00,
2013-01-14 07:42:00,22.1,-4.7,30.19,WNW,292,5.8,5.8,30,0.00,CLR,,0.00,WeatherDisplay:10.37,2013-01-14 12:42:00,
2013-01-14 07:47:00,22.3,-5.2,30.19,WNW,292,7.3,7.3,29,0.00,CLR,,0.00,WeatherDisplay:10.37,2013-01-14 12:47:00,
2013-01-14 07:52:00,22.3,-5.2,30.21,WNW,292,7.3,7.3,29,0.00,CLR,,0.00,WeatherDisplay:10.37,2013-01-14 12:52:00,
2013-01-14 07:57:00,19.0,-8.1,30.22,WNW,292,7.3,7.3,29,0.00,CLR,,0.00,WeatherDisplay:10.37,2013-01-14 12:57:00,
2013-01-14 08:02:00,22.5,-5.1,30.22,West,270,7.3,7.3,29,0.00,CLR,,0.00,WeatherDisplay:10.37,2013-01-14 13:02:00,
2013-01-14 08:07:00,22.5,-5.1,30.21,WNW,292,4.6,4.6,29,0.00,CLR,,0.00,WeatherDisplay:10.37,2013-01-14 13:07:00,
2013-01-14 08:12:00,22.5,-5.1,30.20,NNW,337,4.9,4.9,29,0.00,CLR,,0.00,WeatherDisplay:10.37,2013-01-14 13:12:00,
2013-01-14 08:17:00,19.0,-8.1,30.19,NW,315,4.9,4.9,29,0.00,CLR,,0.00,WeatherDisplay:10.37,2013-01-14 13:17:00,
2013-01-14 08:22:00,19.0,-8.1,30.20,West,270,5.1,5.1,29,0.00,CLR,,0.00,WeatherDisplay:10.37,2013-01-14 13:22:00,
2013-01-14 08:27:00,19.0,-8.1,30.21,West,270,5.1,5.1,29,0.00,CLR,,0.00,WeatherDisplay:10.37,2013-01-14 13:27:00,
2013-01-14 08:32:00,19.0,-8.1,30.22,WNW,292,5.1,5.1,29,0.00,CLR,,0.00,WeatherDisplay:10.37,2013-01-14 13:32:00,
2013-01-14 08:37:00,19.0,-8.1,30.23,West,270,5.1,5.1,29,0.00,CLR,,0.00,WeatherDisplay:10.37,2013-01-14 13:37:00,
2013-01-14 08:42:00,22.5,-5.1,30.24,WNW,292,5.1,5.1,29,0.00,CLR,,0.00,WeatherDisplay:10.37,2013-01-14 13:42:00,
2013-01-14 08:47:00,22.1,-5.4,30.24,North,0,5.1,5.1,29,0.00,CLR,,0.00,WeatherDisplay:10.37,2013-01-14 13:47:00,
2013-01-14 08:52:00,22.3,-5.2,30.24,WNW,292,5.1,5.1,29,0.00,CLR,,0.00,WeatherDisplay:10.37,2013-01-14 13:52:00,
2013-01-14 08:57:00,22.3,-5.2,30.23,West,270,5.1,5.1,29,0.00,CLR,,0.00,WeatherDisplay:10.37,2013-01-14 13:57:00,
2013-01-14 09:02:00,22.3,-5.2,30.23,West,270,4.6,4.6,29,0.00,CLR,,0.00,WeatherDisplay:10.37,2013-01-14 14:02:00,
2013-01-14 09:07:00,22.5,-5.1,30.24,WSW,247,5.9,5.9,29,0.00,CLR,,0.00,WeatherDisplay:10.37,2013-01-14 14:07:00,
2013-01-14 09:12:00,22.5,-5.1,30.25,NW,315,5.9,5.9,29,0.00,CLR,,0.00,WeatherDisplay:10.37,2013-01-14 14:12:00,
2013-01-14 09:17:00,22.3,-5.2,30.26,NW,315,5.9,5.9,29,0.00,CLR,,0.00,WeatherDisplay:10.37,2013-01-14 14:17:00,
2013-01-14 09:22:00,22.1,-5.4,30.27,NW,315,5.9,5.9,29,0.00,CLR,,0.00,WeatherDisplay:10.37,2013-01-14 14:22:00,
2013-01-14 09:27:00,21.9,-5.5,30.28,NW,315,5.9,5.9,29,0.00,CLR,,0.00,WeatherDisplay:10.37,2013-01-14 14:27:00,
2013-01-14 09:32:00,21.6,-5.9,30.28,WNW,292,5.9,5.9,29,0.00,CLR,,0.00,WeatherDisplay:10.37,2013-01-14 14:32:00,
2013-01-14 09:37:00,21.4,-6.0,30.27,West,270,5.9,5.9,29,0.00,CLR,,0.00,WeatherDisplay:10.37,2013-01-14 14:37:00,
2013-01-14 09:42:00,20.8,-6.5,30.26,NW,315,5.9,5.9,29,0.00,CLR,,0.00,WeatherDisplay:10.37,2013-01-14 14:42:00,
2013-01-14 09:47:00,23.7,-4.0,30.24,West,270,5.9,5.9,29,0.00,CLR,,0.00,WeatherDisplay:10.37,2013-01-14 14:47:00,
2013-01-14 09:52:00,23.5,-4.1,30.24,NNW,337,6.1,6.1,29,0.00,CLR,,0.00,WeatherDisplay:10.37,2013-01-14 14:52:00,
2013-01-14 09:57:00,23.4,-4.3,30.23,SW,225,6.1,6.1,29,0.00,CLR,,0.00,WeatherDisplay:10.37,2013-01-14 14:57:00,
2013-01-14 10:02:00,22.6,-4.9,30.24,West,270,5.8,5.8,29,0.00,CLR,,0.00,WeatherDisplay:10.37,2013-01-14 15:02:00,
2013-01-14 10:07:00,25.7,-2.2,30.25,WNW,292,4.6,4.6,29,0.00,CLR,,0.00,WeatherDisplay:10.37,2013-01-14 15:07:00,
2013-01-14 10:12:00,25.5,-2.4,30.25,NW,315,4.6,4.6,29,0.00,CLR,,0.00,WeatherDisplay:10.37,2013-01-14 15:12:00,
2013-01-14 10:18:00,25.7,-2.2,30.26,NNW,337,4.6,4.6,29,0.00,CLR,,0.00,WeatherDisplay:10.37,2013-01-14 15:18:00,
2013-01-14 10:24:00,26.2,-1.8,30.25,WNW,292,5.8,5.8,29,0.00,CLR,,0.00,WeatherDisplay:10.37,2013-01-14 15:24:00,
2013-01-14 10:29:00,26.4,-1.6,30.25,WNW,292,5.8,5.8,29,0.00,CLR,,0.00,WeatherDisplay:10.37,2013-01-14 15:29:00,
2013-01-14 10:34:00,27.0,-1.1,30.25,WNW,292,5.8,5.8,29,0.00,CLR,,0.00,WeatherDisplay:10.37,2013-01-14 15:34:00,
2013-01-14 10:39:00,24.6,-3.2,30.26,NW,315,5.8,5.8,29,0.00,CLR,,0.00,WeatherDisplay:10.37,2013-01-14 15:39:00,
2013-01-14 10:44:00,25.4,-2.5,30.26,NW,306,2.0,6.0,29,0.00,CLR,CLR,0.00,WeatherDisplay:10.37,2013-01-14 15:44:00,
2013-01-14 10:49:00,25.2,-2.7,30.27,NW,322,5.0,6.0,29,0.00,CLR,CLR,0.00,WeatherDisplay:10.37,2013-01-14 15:49:00,
2013-01-14 10:54:00,25.9,-2.1,30.27,NW,326,2.0,6.0,29,0.00,CLR,CLR,0.00,WeatherDisplay:10.37,2013-01-14 15:54:00,
2013-01-14 10:59:00,25.1,-2.8,30.27,NW,315,3.0,6.0,29,0.00,CLR,CLR,0.00,WeatherDisplay:10.37,2013-01-14 15:59:00,
2013-01-14 11:04:00,25.1,-2.8,30.28,WNW,303,5.0,6.0,29,0.00,CLR,CLR,0.00,WeatherDisplay:10.37,2013-01-14 16:04:00,
2013-01-14 11:09:00,22.6,-4.9,30.28,NW,308,3.0,5.0,29,0.00,CLR,CLR,0.00,WeatherDisplay:10.37,2013-01-14 16:09:00,
2013-01-14 11:14:00,22.8,-4.8,30.28,NW,317,3.0,5.0,29,0.00,CLR,CLR,0.00,WeatherDisplay:10.37,2013-01-14 16:14:00,
2013-01-14 11:19:00,22.6,-4.9,30.29,NW,322,1.0,5.0,29,0.00,CLR,CLR,0.00,WeatherDisplay:10.37,2013-01-14 16:19:00,
2013-01-14 11:24:00,22.8,-4.8,30.29,NNW,336,5.0,5.0,29,0.00,CLR,CLR,0.00,WeatherDisplay:10.37,2013-01-14 16:24:00,
2013-01-14 11:29:00,23.8,-3.9,30.30,NNW,340,5.0,5.0,29,0.00,CLR,CLR,0.00,WeatherDisplay:10.37,2013-01-14 16:29:00,
2013-01-14 11:34:00,23.9,-3.8,30.30,NNW,331,2.0,5.0,29,0.00,CLR,CLR,0.00,WeatherDisplay:10.37,2013-01-14 16:34:00,
2013-01-14 11:39:00,25.5,-2.4,30.30,NW,314,2.0,5.0,29,0.00,CLR,CLR,0.00,WeatherDisplay:10.37,2013-01-14 16:39:00,
2013-01-14 11:44:00,27.0,-1.1,30.30,NNW,328,3.0,5.0,29,0.00,CLR,CLR,0.00,WeatherDisplay:10.37,2013-01-14 16:44:00,
2013-01-14 11:49:00,26.6,-1.4,30.30,NW,321,3.0,5.0,29,0.00,CLR,CLR,0.00,WeatherDisplay:10.37,2013-01-14 16:49:00,
2013-01-14 11:54:00,26.2,-1.8,30.30,West,281,2.0,5.0,29,0.00,CLR,CLR,0.00,WeatherDisplay:10.37,2013-01-14 16:54:00,
2013-01-14 11:59:00,27.1,-1.0,30.24,West,270,3.0,5.0,29,0.00,CLR,CLR,0.00,WeatherDisplay:10.37,2013-01-14 16:59:00,
2013-01-14 12:04:00,27.5,-0.7,30.24,West,275,5.0,5.0,29,0.00,CLR,CLR,0.00,WeatherDisplay:10.37,2013-01-14 17:04:00,
2013-01-14 12:09:00,24.6,-3.2,30.24,WNW,303,5.0,5.0,29,0.00,CLR,CLR,0.00,WeatherDisplay:10.37,2013-01-14 17:09:00,
2013-01-14 12:14:00,25.1,-2.7,30.24,NW,321,6.0,6.0,29,0.00,CLR,CLR,0.00,WeatherDisplay:10.37,2013-01-14 17:14:00,
2013-01-14 12:19:00,26.1,-1.9,30.24,NW,324,2.0,6.0,29,0.00,CLR,CLR,0.00,WeatherDisplay:10.37,2013-01-14 17:19:00,
2013-01-14 12:24:00,28.0,-0.2,30.22,NW,313,2.0,6.0,29,0.00,CLR,CLR,0.00,WeatherDisplay:10.37,2013-01-14 17:24:00,
2013-01-14 12:29:00,30.2,1.7,30.22,WNW,301,3.0,6.0,29,0.00,CLR,CLR,0.00,WeatherDisplay:10.37,2013-01-14 17:29:00,
2013-01-14 12:34:00,29.3,0.9,30.22,NW,312,3.0,6.0,29,0.00,CLR,CLR,0.00,WeatherDisplay:10.37,2013-01-14 17:34:00,
2013-01-14 12:40:00,27.5,-0.7,30.22,NNW,341,3.0,6.0,29,0.00,CLR,CLR,0.00,WeatherDisplay:10.37,2013-01-14 17:40:00,
2013-01-14 12:45:00,24.6,-3.2,30.22,NNW,337,5.9,5.9,29,0.00,CLR,,0.00,WeatherDisplay:10.37,2013-01-14 17:45:00,
2013-01-14 12:50:00,26.1,-1.9,30.24,WNW,292,5.9,5.9,29,0.00,CLR,,0.00,WeatherDisplay:10.37,2013-01-14 17:50:00,
2013-01-14 12:55:00,22.8,-4.8,30.24,WNW,292,5.9,5.9,29,0.00,CLR,,0.00,WeatherDisplay:10.37,2013-01-14 17:55:00,
2013-01-14 13:00:00,26.2,-1.8,30.24,WSW,247,5.9,5.9,29,0.00,CLR,,0.00,WeatherDisplay:10.37,2013-01-14 18:00:00,
2013-01-14 13:05:00,28.4,0.1,30.24,NNW,337,4.0,4.0,29,0.00,CLR,,0.00,WeatherDisplay:10.37,2013-01-14 18:05:00,
2013-01-14 13:10:00,27.5,-0.7,30.24,NNW,337,5.8,5.8,29,0.00,CLR,,0.00,WeatherDisplay:10.37,2013-01-14 18:10:00,
2013-01-14 13:15:00,27.7,-0.5,30.24,NNW,337,5.8,5.8,29,0.00,CLR,,0.00,WeatherDisplay:10.37,2013-01-14 18:15:00,
2013-01-14 13:20:00,27.7,-0.5,30.24,NNE,22,5.8,5.8,29,0.00,CLR,,0.00,WeatherDisplay:10.37,2013-01-14 18:20:00,
2013-01-14 13:25:00,26.8,-1.3,30.25,SW,225,5.8,5.8,29,0.00,CLR,,0.00,WeatherDisplay:10.37,2013-01-14 18:25:00,
2013-01-14 13:30:00,27.5,-0.7,30.24,NW,315,5.8,5.8,29,0.00,CLR,,0.00,WeatherDisplay:10.37,2013-01-14 18:30:00,
2013-01-14 13:36:00,28.4,0.1,30.25,North,0,5.8,5.8,29,0.00,CLR,,0.00,WeatherDisplay:10.37,2013-01-14 18:36:00,
2013-01-14 13:41:00,28.8,0.4,30.25,WNW,292,5.8,5.8,29,0.00,CLR,,0.00,WeatherDisplay:10.37,2013-01-14 18:41:00,
2013-01-14 13:46:00,28.6,0.3,30.25,NW,315,5.8,5.8,29,0.00,CLR,,0.00,WeatherDisplay:10.37,2013-01-14 18:46:00,
2013-01-14 13:52:00,28.6,0.3,30.25,West,270,5.8,5.8,29,0.00,CLR,,0.00,WeatherDisplay:10.37,2013-01-14 18:52:00,
2013-01-14 13:57:00,28.8,0.4,30.25,WNW,292,5.8,5.8,29,0.04,RA,,0.04,WeatherDisplay:10.37,2013-01-14 18:57:00,
2013-01-14 14:02:00,28.6,0.3,30.26,WNW,292,5.8,5.8,29,0.04,RA,,0.04,WeatherDisplay:10.37,2013-01-14 19:02:00,
2013-01-14 14:07:00,28.2,0.0,30.27,WSW,247,2.8,2.8,29,0.04,,,0.04,WeatherDisplay:10.37,2013-01-14 19:07:00,
2013-01-14 14:12:00,27.5,-0.7,30.27,NW,315,3.5,3.5,29,0.04,CLR,,0.04,WeatherDisplay:10.37,2013-01-14 19:12:00,
2013-01-14 14:18:00,27.7,-0.5,30.27,WNW,292,4.6,4.6,29,0.04,CLR,,0.04,WeatherDisplay:10.37,2013-01-14 19:18:00,
2013-01-14 14:23:00,27.7,-0.5,30.28,NW,315,5.8,5.8,29,0.04,CLR,,0.04,WeatherDisplay:10.37,2013-01-14 19:23:00,
2013-01-14 14:28:00,27.3,-0.8,30.30,SW,225,5.8,5.8,29,0.04,CLR,,0.04,WeatherDisplay:10.37,2013-01-14 19:28:00,
2013-01-14 14:33:00,27.5,-0.7,30.23,WNW,292,5.8,5.8,29,0.04,CLR,,0.04,WeatherDisplay:10.37,2013-01-14 19:33:00,
2013-01-14 14:38:00,27.3,-0.8,30.24,WNW,292,5.8,5.8,29,0.04,CLR,,0.04,WeatherDisplay:10.37,2013-01-14 19:38:00,
2013-01-14 14:44:00,26.2,-1.8,30.25,WNW,292,5.8,5.8,29,0.04,CLR,,0.04,WeatherDisplay:10.37,2013-01-14 19:44:00,
2013-01-14 14:49:00,24.6,-3.2,30.25,NW,315,5.8,5.8,29,0.04,CLR,,0.04,WeatherDisplay:10.37,2013-01-14 19:49:00,
2013-01-14 14:54:00,24.6,-3.2,30.26,NNW,337,5.8,5.8,29,0.04,CLR,,0.04,WeatherDisplay:10.37,2013-01-14 19:54:00,
2013-01-14 14:59:00,27.0,-1.1,30.26,SSW,202,5.8,5.8,29,0.00,CLR,,0.04,WeatherDisplay:10.37,2013-01-14 19:59:00,
2013-01-14 15:04:00,27.1,-1.0,30.27,NW,315,2.4,2.4,29,0.00,CLR,,0.04,WeatherDisplay:10.37,2013-01-14 20:04:00,
2013-01-14 15:09:00,27.1,-1.0,30.28,WSW,247,3.8,3.8,29,0.00,CLR,,0.04,WeatherDisplay:10.37,2013-01-14 20:09:00,
2013-01-14 15:14:00,26.8,-1.3,30.28,West,270,4.0,4.0,29,0.00,CLR,,0.04,WeatherDisplay:10.37,2013-01-14 20:14:00,
2013-01-14 15:19:00,26.8,-1.3,30.28,WSW,247,4.0,4.0,29,0.00,CLR,,0.04,WeatherDisplay:10.37,2013-01-14 20:19:00,
2013-01-14 15:24:00,26.8,-1.3,30.27,SW,225,4.0,4.0,29,0.00,CLR,,0.04,WeatherDisplay:10.37,2013-01-14 20:24:00,
2013-01-14 15:29:00,26.6,-1.4,30.29,WSW,247,4.0,4.0,29,0.00,CLR,,0.04,WeatherDisplay:10.37,2013-01-14 20:29:00,
2013-01-14 15:34:00,26.7,-1.3,30.30,WSW,252,3.0,4.0,29,0.00,CLR,CLR,0.04,WeatherDisplay:10.37,2013-01-14 20:34:00,
2013-01-14 15:39:00,26.6,-1.5,30.30,WNW,284,5.0,5.0,29,0.00,CLR,CLR,0.04,WeatherDisplay:10.37,2013-01-14 20:39:00,
2013-01-14 15:44:00,26.0,-2.0,30.31,WNW,287,3.0,5.0,29,0.00,CLR,CLR,0.04,WeatherDisplay:10.37,2013-01-14 20:44:00,
2013-01-14 15:49:00,24.7,-3.1,30.31,West,267,5.0,5.0,29,0.00,CLR,CLR,0.04,WeatherDisplay:10.37,2013-01-14 20:49:00,
2013-01-14 15:54:00,24.8,-3.0,30.31,West,260,1.0,5.0,29,0.00,CLR,CLR,0.04,WeatherDisplay:10.37,2013-01-14 20:54:00,
2013-01-14 15:59:00,25.0,-2.8,30.32,West,267,5.0,5.0,29,0.00,CLR,CLR,0.04,WeatherDisplay:10.37,2013-01-14 20:59:00,
2013-01-14 16:04:00,25.3,-2.5,30.33,WSW,256,5.0,5.0,29,0.00,CLR,CLR,0.04,WeatherDisplay:10.37,2013-01-14 21:04:00,
2013-01-14 16:09:00,25.4,-2.5,30.33,WSW,251,1.0,5.0,29,0.00,CLR,CLR,0.04,WeatherDisplay:10.37,2013-01-14 21:09:00,
2013-01-14 16:14:00,26.1,-1.9,30.34,West,273,2.0,5.0,29,0.00,CLR,CLR,0.04,WeatherDisplay:10.37,2013-01-14 21:14:00,
2013-01-14 16:19:00,25.5,-2.4,30.35,West,267,2.0,5.0,29,0.00,CLR,CLR,0.04,WeatherDisplay:10.37,2013-01-14 21:19:00,
2013-01-14 16:24:00,22.7,-4.9,30.35,WSW,250,1.0,5.0,29,0.00,CLR,CLR,0.04,WeatherDisplay:10.37,2013-01-14 21:24:00,
2013-01-14 16:29:00,22.8,-4.8,30.31,West,273,5.0,5.0,29,0.00,CLR,CLR,0.04,WeatherDisplay:10.37,2013-01-14 21:29:00,
2013-01-14 16:34:00,23.0,-4.6,30.30,West,277,5.0,5.0,29,0.00,CLR,CLR,0.04,WeatherDisplay:10.37,2013-01-14 21:34:00,
2013-01-14 16:39:00,23.2,-4.4,30.31,West,261,3.0,5.0,29,0.00,CLR,CLR,0.04,WeatherDisplay:10.37,2013-01-14 21:39:00,
2013-01-14 16:44:00,23.2,-4.4,30.31,WSW,247,3.0,5.0,29,0.00,CLR,CLR,0.04,WeatherDisplay:10.37,2013-01-14 21:44:00,
2013-01-14 16:49:00,23.4,-4.3,30.31,West,259,2.0,5.0,29,0.00,CLR,CLR,0.04,WeatherDisplay:10.37,2013-01-14 21:49:00,
2013-01-14 16:54:00,23.4,-5.0,30.32,West,274,2.0,5.0,28,0.00,CLR,CLR,0.04,WeatherDisplay:10.37,2013-01-14 21:54:00,
2013-01-14 16:59:00,23.5,-4.1,30.33,WNW,292,2.0,5.0,29,0.00,CLR,CLR,0.04,WeatherDisplay:10.37,2013-01-14 21:59:00,
2013-01-14 17:04:00,23.7,-4.7,30.35,WNW,303,3.0,5.0,28,0.00,CLR,CLR,0.04,WeatherDisplay:10.37,2013-01-14 22:04:00,
2013-01-14 17:09:00,23.7,-4.7,30.36,WNW,283,5.0,5.0,28,0.00,CLR,CLR,0.04,WeatherDisplay:10.37,2013-01-14 22:09:00,
2013-01-14 17:14:00,23.7,-4.7,30.37,West,262,3.0,5.0,28,0.00,CLR,CLR,0.04,WeatherDisplay:10.37,2013-01-14 22:14:00,
2013-01-14 17:19:00,23.7,-4.7,30.38,West,271,2.0,5.0,28,0.00,CLR,CLR,0.04,WeatherDisplay:10.37,2013-01-14 22:19:00,
2013-01-14 17:24:00,23.7,-4.7,30.38,West,280,3.0,5.0,28,0.00,CLR,CLR,0.04,WeatherDisplay:10.37,2013-01-14 22:24:00,
2013-01-14 17:29:00,23.7,-4.7,30.33,West,264,1.0,5.0,28,0.00,CLR,CLR,0.04,WeatherDisplay:10.37,2013-01-14 22:29:00,
2013-01-14 17:34:00,23.7,-4.7,30.32,WSW,237,3.0,5.0,28,0.00,CLR,CLR,0.04,WeatherDisplay:10.37,2013-01-14 22:34:00,
2013-01-14 17:39:00,23.8,-4.7,30.32,SW,229,2.0,5.0,28,0.00,CLR,CLR,0.04,WeatherDisplay:10.37,2013-01-14 22:39:00,
2013-01-14 17:44:00,23.9,-4.5,30.32,SW,225,3.0,5.0,28,0.00,CLR,CLR,0.04,WeatherDisplay:10.37,2013-01-14 22:44:00,
2013-01-14 17:50:00,24.1,-4.4,30.31,SW,227,1.0,5.0,28,0.00,CLR,CLR,0.04,WeatherDisplay:10.37,2013-01-14 22:50:00,
2013-01-14 17:55:00,24.1,-4.4,30.38,SW,225,4.7,4.7,28,0.00,CLR,,0.04,WeatherDisplay:10.37,2013-01-14 22:55:00,
2013-01-14 18:00:00,24.3,-4.2,30.36,West,270,4.7,4.7,28,0.00,CLR,,0.04,WeatherDisplay:10.37,2013-01-14 23:00:00,
2013-01-14 18:05:00,21.0,-7.1,30.35,WSW,247,1.7,1.7,28,0.00,CLR,,0.04,WeatherDisplay:10.37,2013-01-14 23:05:00,
2013-01-14 18:10:00,21.0,-7.1,30.34,SW,225,1.7,0.0,28,0.00,CLR,,0.04,WeatherDisplay:10.37,2013-01-14 23:10:00,
2013-01-14 18:15:00,21.2,-6.2,30.32,SSW,202,1.7,0.0,29,0.00,CLR,,0.04,WeatherDisplay:10.37,2013-01-14 23:15:00,
2013-01-14 18:20:00,21.2,-6.2,30.31,SW,225,1.7,0.0,29,0.00,CLR,,0.04,WeatherDisplay:10.37,2013-01-14 23:20:00,
2013-01-14 18:25:00,21.4,-6.0,30.36,SW,225,1.7,0.0,29,0.00,CLR,,0.04,WeatherDisplay:10.37,2013-01-14 23:25:00,
2013-01-14 18:30:00,21.6,-5.9,30.35,SW,225,1.7,0.0,29,0.00,CLR,,0.04,WeatherDisplay:10.37,2013-01-14 23:30:00,
2013-01-14 18:35:00,21.7,-5.7,30.34,WSW,247,1.7,0.0,29,0.00,CLR,,0.04,WeatherDisplay:10.37,2013-01-14 23:35:00,
2013-01-14 18:40:00,21.9,-5.5,30.33,SSW,202,1.7,0.0,29,0.00,CLR,,0.04,WeatherDisplay:10.37,2013-01-14 23:40:00,
2013-01-14 18:45:00,21.9,-5.5,30.32,SSW,202,1.7,0.0,29,0.00,CLR,,0.04,WeatherDisplay:10.37,2013-01-14 23:45:00,
2013-01-14 18:50:00,21.9,-5.5,30.30,SSW,202,1.7,0.0,29,0.00,CLR,,0.04,WeatherDisplay:10.37,2013-01-14 23:50:00,
2013-01-14 18:55:00,21.9,-5.5,30.35,South,180,1.7,0.0,29,0.00,CLR,,0.04,WeatherDisplay:10.37,2013-01-14 23:55:00,
2013-01-14 19:00:00,21.9,-5.5,30.34,South,180,1.7,0.0,29,0.00,CLR,,0.04,WeatherDisplay:10.37,2013-01-15 00:00:00,
2013-01-14 19:05:00,21.9,-5.5,30.33,South,180,0.0,0.0,29,0.00,CLR,,0.04,WeatherDisplay:10.37,2013-01-15 00:05:00,
2013-01-14 19:10:00,22.1,-5.4,30.31,South,180,0.0,0.0,29,0.00,CLR,,0.04,WeatherDisplay:10.37,2013-01-15 00:10:00,
2013-01-14 19:15:00,22.3,-5.2,30.30,South,180,0.0,0.0,29,0.00,CLR,,0.04,WeatherDisplay:10.37,2013-01-15 00:15:00,
2013-01-14 19:20:00,22.3,-5.2,30.30,South,180,0.0,0.0,29,0.00,CLR,,0.04,WeatherDisplay:10.37,2013-01-15 00:20:00,
2013-01-14 19:25:00,22.3,-5.2,30.28,South,180,0.0,0.0,29,0.00,CLR,,0.04,WeatherDisplay:10.37,2013-01-15 00:25:00,
2013-01-14 19:30:00,22.3,-3.8,30.30,South,180,0.0,0.0,31,0.00,CLR,,0.04,WeatherDisplay:10.37,2013-01-15 00:30:00,
2013-01-14 19:35:00,19.0,-6.7,30.30,South,180,0.0,0.0,31,0.00,CLR,,0.04,WeatherDisplay:10.37,2013-01-15 00:35:00,
2013-01-14 19:40:00,19.2,-6.5,30.30,South,180,0.0,0.0,31,0.00,CLR,,0.04,WeatherDisplay:10.37,2013-01-15 00:40:00,
2013-01-14 19:45:00,19.4,-7.7,30.31,South,180,0.0,0.0,29,0.00,CLR,,0.04,WeatherDisplay:10.37,2013-01-15 00:45:00,
2013-01-14 19:50:00,19.6,-7.6,30.31,South,180,0.0,0.0,29,0.00,CLR,,0.04,WeatherDisplay:10.37,2013-01-15 00:50:00,
2013-01-14 19:55:00,19.8,-7.4,30.30,South,180,0.0,0.0,29,0.00,CLR,,0.04,WeatherDisplay:10.37,2013-01-15 00:55:00,
2013-01-14 20:00:00,19.9,-7.3,30.30,South,180,0.0,0.0,29,0.00,CLR,,0.04,WeatherDisplay:10.37,2013-01-15 01:00:00,
2013-01-14 20:05:00,19.9,-5.9,30.27,South,180,0.0,0.0,31,0.00,CLR,,0.04,WeatherDisplay:10.37,2013-01-15 01:05:00,
2013-01-14 20:10:00,19.8,-7.4,30.34,South,180,0.0,0.0,29,0.00,CLR,,0.04,WeatherDisplay:10.37,2013-01-15 01:10:00,
2013-01-14 20:15:00,19.8,-7.4,30.26,South,180,0.0,0.0,29,0.00,CLR,,0.04,WeatherDisplay:10.37,2013-01-15 01:15:00,
2013-01-14 20:20:00,19.9,-7.3,30.26,South,180,0.0,0.0,29,0.00,CLR,,0.04,WeatherDisplay:10.37,2013-01-15 01:20:00,
2013-01-14 20:25:00,19.9,-5.9,30.28,South,180,0.0,0.0,31,0.00,CLR,,0.04,WeatherDisplay:10.37,2013-01-15 01:25:00,
2013-01-14 20:30:00,20.1,-5.7,30.28,South,180,0.0,0.0,31,0.00,CLR,,0.04,WeatherDisplay:10.37,2013-01-15 01:30:00,
2013-01-14 20:35:00,20.5,-6.8,30.27,South,180,0.0,0.0,29,0.00,CLR,,0.04,WeatherDisplay:10.37,2013-01-15 01:35:00,
2013-01-14 20:40:00,20.5,-6.8,30.27,South,180,0.0,0.0,29,0.00,CLR,,0.04,WeatherDisplay:10.37,2013-01-15 01:40:00,
2013-01-14 20:45:00,20.5,-6.8,30.26,South,180,0.0,0.0,29,0.00,CLR,,0.04,WeatherDisplay:10.37,2013-01-15 01:45:00,
2013-01-14 20:50:00,20.5,-6.8,30.32,South,180,0.0,0.0,29,0.00,CLR,,0.04,WeatherDisplay:10.37,2013-01-15 01:50:00,
2013-01-14 20:55:00,20.5,-6.8,30.31,South,180,0.0,0.0,29,0.00,CLR,,0.04,WeatherDisplay:10.37,2013-01-15 01:55:00,
2013-01-14 21:00:00,20.5,-6.8,30.32,South,180,0.0,0.0,29,0.00,CLR,,0.04,WeatherDisplay:10.37,2013-01-15 02:00:00,
2013-01-14 21:05:00,20.7,-6.6,30.26,SW,225,0.0,0.0,29,0.00,CLR,,0.04,WeatherDisplay:10.37,2013-01-15 02:05:00,
2013-01-14 21:10:00,17.2,-9.6,30.27,South,180,0.0,0.0,29,0.00,CLR,,0.04,WeatherDisplay:10.37,2013-01-15 02:10:00,
2013-01-14 21:15:00,20.7,-6.6,30.27,SSW,202,0.0,0.0,29,0.00,CLR,,0.04,WeatherDisplay:10.37,2013-01-15 02:15:00,
2013-01-14 21:20:00,20.5,-6.8,30.27,SSW,202,0.0,0.0,29,0.00,CLR,,0.04,WeatherDisplay:10.37,2013-01-15 02:20:00,
2013-01-14 21:25:00,20.5,-6.8,30.33,SSW,202,0.0,0.0,29,0.00,CLR,,0.04,WeatherDisplay:10.37,2013-01-15 02:25:00,
2013-01-14 21:30:00,20.5,-6.8,30.31,SSW,202,0.0,0.0,29,0.00,CLR,,0.04,WeatherDisplay:10.37,2013-01-15 02:30:00,
2013-01-14 21:35:00,20.7,-6.6,30.31,SSW,202,0.0,0.0,29,0.00,CLR,,0.04,WeatherDisplay:10.37,2013-01-15 02:35:00,
2013-01-14 21:40:00,17.2,-9.6,30.31,WSW,247,0.0,0.0,29,0.00,CLR,,0.04,WeatherDisplay:10.37,2013-01-15 02:40:00,
2013-01-14 21:45:00,17.2,-9.6,30.32,SW,225,0.0,0.0,29,0.00,CLR,,0.04,WeatherDisplay:10.37,2013-01-15 02:45:00,
2013-01-14 21:50:00,17.2,-9.6,30.33,SW,225,0.0,0.0,29,0.00,CLR,,0.04,WeatherDisplay:10.37,2013-01-15 02:50:00,
2013-01-14 21:55:00,17.2,-9.6,30.26,SSW,202,0.0,0.0,29,0.00,CLR,,0.04,WeatherDisplay:10.37,2013-01-15 02:55:00,
2013-01-14 22:00:00,17.2,-9.6,30.27,SSW,202,1.3,0.0,29,0.00,CLR,,0.04,WeatherDisplay:10.37,2013-01-15 03:00:00,
2013-01-14 22:05:00,17.2,-9.6,30.33,SSW,202,0.0,0.0,29,0.00,CLR,,0.04,WeatherDisplay:10.37,2013-01-15 03:05:00,
2013-01-14 22:10:00,17.2,-9.6,30.31,SW,225,0.0,0.0,29,0.00,CLR,,0.04,WeatherDisplay:10.37,2013-01-15 03:10:00,
2013-01-14 22:15:00,17.4,-9.5,30.29,SSW,202,0.0,0.0,29,0.00,CLR,,0.04,WeatherDisplay:10.37,2013-01-15 03:15:00,
2013-01-14 22:20:00,17.4,-9.5,30.29,SSW,202,0.0,0.0,29,0.00,CLR,,0.04,WeatherDisplay:10.37,2013-01-15 03:20:00,
2013-01-14 22:25:00,17.6,-9.3,30.28,SSW,202,0.0,0.0,29,0.00,CLR,,0.04,WeatherDisplay:10.37,2013-01-15 03:25:00,
2013-01-14 22:30:00,17.8,-9.2,30.29,SSW,202,0.0,0.0,29,0.00,CLR,,0.04,WeatherDisplay:10.37,2013-01-15 03:30:00,
2013-01-14 22:35:00,18.0,-7.6,30.29,SSW,202,0.0,0.0,31,0.00,CLR,,0.04,WeatherDisplay:10.37,2013-01-15 03:35:00,
2013-01-14 22:40:00,18.1,-7.5,30.27,SSW,202,0.0,0.0,31,0.00,CLR,,0.04,WeatherDisplay:10.37,2013-01-15 03:40:00,
2013-01-14 22:45:00,18.1,-7.5,30.27,WSW,247,0.0,0.0,31,0.00,CLR,,0.04,WeatherDisplay:10.37,2013-01-15 03:45:00,
2013-01-14 22:50:00,18.3,-8.7,30.26,WSW,247,0.0,0.0,29,0.00,CLR,,0.04,WeatherDisplay:10.37,2013-01-15 03:50:00,
2013-01-14 22:55:00,18.3,-7.3,30.27,SW,225,0.0,0.0,31,0.00,CLR,,0.04,WeatherDisplay:10.37,2013-01-15 03:55:00,
2013-01-14 23:00:00,18.1,-8.9,30.28,SSW,202,0.0,0.0,29,0.00,CLR,,0.04,WeatherDisplay:10.37,2013-01-15 04:00:00,
2013-01-14 23:05:00,18.1,-7.5,30.29,SSW,202,0.0,0.0,31,0.00,CLR,,0.04,WeatherDisplay:10.37,2013-01-15 04:05:00,
2013-01-14 23:10:00,18.0,-7.6,30.29,SSW,202,1.1,1.1,31,0.00,CLR,,0.04,WeatherDisplay:10.37,2013-01-15 04:10:00,
2013-01-14 23:15:00,18.1,-8.9,30.28,WSW,247,2.3,0.0,29,0.00,CLR,,0.04,WeatherDisplay:10.37,2013-01-15 04:15:00,
2013-01-14 23:20:00,18.1,-7.5,30.26,SW,225,2.3,0.0,31,0.00,CLR,,0.04,WeatherDisplay:10.37,2013-01-15 04:20:00,
2013-01-14 23:25:00,18.1,-8.2,30.26,SSW,202,2.3,0.0,30,0.00,CLR,,0.04,WeatherDisplay:10.37,2013-01-15 04:25:00,
2013-01-14 23:30:00,18.1,-9.6,30.24,South,180,2.3,0.0,28,0.00,CLR,,0.04,WeatherDisplay:10.37,2013-01-15 04:30:00,
2013-01-14 23:35:00,18.3,-8.0,30.25,SSW,202,2.3,0.0,30,0.00,CLR,,0.04,WeatherDisplay:10.37,2013-01-15 04:35:00,
2013-01-14 23:40:00,18.3,-8.0,30.26,WSW,247,2.3,0.0,30,0.00,CLR,,0.04,WeatherDisplay:10.37,2013-01-15 04:40:00,
2013-01-14 23:45:00,18.1,-8.2,30.26,West,270,2.3,0.0,30,0.00,CLR,,0.04,WeatherDisplay:10.37,2013-01-15 04:45:00,
2013-01-14 23:50:00,18.1,-8.2,30.25,SW,225,2.3,0.0,30,0.00,CLR,,0.04,WeatherDisplay:10.37,2013-01-15 04:50:00,
2013-01-14 23:55:00,18.0,-9.7,30.29,NW,315,2.3,0.0,28,0.00,CLR,,0.04,WeatherDisplay:10.37,2013-01-15 04:55:00,